Location: Moscow
(55.7500°N, 37.5830°E)
Time: 00:05:47
(UTC+03:00)

COSMOS 2251 DEB - Pass Details

Date: 11 July 2022
Orbit: 738 x 847 km, 74.1° (Epoch: 17 August)

Event Time Altitude Azimuth Distance (km) Brightness Sun altitude
Rises 02:43:49 0° 332° (NNW) 3,227 ? -7.5°
Reaches altitude 10° 02:46:13 10° 334° (NNW) 2,286 ? -7.3°
Maximum altitude 02:51:23 77° 60° (ENE) 770 ? -6.9°
Drops below altitude 10° 02:56:27 10° 147° (SSE) 2,244 ? -6.5°
Sets 02:58:48 0° 149° (SSE) 3,164 ? -6.4°
